Location: York
(31.8935°S, 116.7682°E)
Time: 19:07:40
(UTC+08:00)

deb Explorer IX - Pass Details

Date: 02 October 2022
Orbit: 533 x 1057 km, 38.8° (Epoch: 30 November)

Event Time Altitude Azimuth Distance (km) Brightness Sun altitude
Rises 21:21:32 0° 254° (WSW) 3,312 ? -37.8°
Reaches altitude 10° 21:24:22 10° 245° (WSW) 2,284 ? -38.3°
Enters shadow 21:26:16 20° 234° (SW) 1,651 ? -38.6°
Maximum altitude 21:29:17 37° 178° (S) 1,052 - -39.1°
Drops below altitude 10° 21:33:33 10° 109° (ESE) 1,987 - -39.9°
Sets 21:35:52 0° 100° (E) 2,827 - -40.2°
